[[{"header":{"parameterUnit":"m.s-1","parameterCategory":1,"la1":30.2991,"la2":30.254,"lo1":-89.0895,"lo2":-89.0444,"dy":0.0017,"dx":0.0017,"nx":28,"ny":28,"refTime":"2023-09-02T03:00:00:Z","depth":0,"parameterNumber":2,"parameterNumberName":"U-component_of_WINDS"},"data":[0,0,0,0,0,0,0,0,0,0,0,0,0,0,0,0,0,0,0,0,0,0,0,0,0,0,0,0,0,0,0,0,0,0,0,0,0,0,0,0,0,0,0,0,0,0,0,0,0,0,0,0,0,0,0,0,0,0,-5.3676,-5.3676,0,-5.3686,-5.3686,-5.3686,-5.3587,-5.3584,-5.3581,-5.3579,-5.3585,-5.3588,-5.3591,0,0,0,0,0,0,0,0,0,0,0,0,0,-5.3571,-5.3573,-5.3676,-5.3676,-5.3676,-5.3686,-5.3686,-5.3686,-5.3587,-5.3584,-5.3581,-5.3578,-5.3585,-5.3588,-5.3591,0,0,0,0,0,0,0,0,0,0,0,0,0,-5.3602,-5.3574,-5.3676,-5.3628,-5.3624,-5.3685,-5.3686,-5.3686,-5.3588,-5.3584,-5.358,-5.3576,-5.3583,-5.3587,-5.3591,-5.3698,0,0,-5.3604,-5.3606,0,0,0,0,0,0,0,0,-5.36,-5.3606,-5.3635,-5.3632,-5.3627,-5.3631,-5.3651,-5.369,-5.3589,-5.3602,-5.3579,-5.3574,-5.3604,-5.3606,-5.3616,-5.3698,-5.3698,-5.3604,-5.3607,-5.3608,-5.3609,0,0,0,0,0,0,0,-5.3598,-5.3605,-5.368,-5.3636,-5.3631,-5.3606,-5.3606,-5.3658,-5.3625,-5.36,-5.3593,-5.3596,-5.3601,-5.3613,-5.3616,-5.3698,-5.3604,-5.3608,-5.361,-5.3612,-5.387,-5.3874,0,0,0,0,0,0,-5.3603,-5.3604,-5.3679,-5.368,-5.3604,-5.3611,-5.3611,-5.3634,-5.3624,-5.3619,-5.3599,-5.3591,-5.3608,-5.3611,-5.3616,-5.3741,-5.3608,-5.3612,-5.3614,-5.3865,-5.3871,-5.3876,0,0,0,0,0,0,-5.3601,-5.3611,-5.3679,-5.364,-5.3647,-5.3617,-5.3644,-5.3636,-5.3648,-5.3624,-5.3617,-5.3618,-5.3605,-5.361,-5.3679,-5.374,-5.3614,-5.3618,-5.386,-5.3867,-5.3873,-5.3992,0,0,0,0,0,0,-5.3598,-5.361,-5.3651,-5.3642,-5.3649,-5.3743,-5.3647,-5.3639,-5.3656,-5.3645,-5.3639,-5.3634,-5.3602,-5.3673,-5.3683,-5.3743,-5.3621,-5.3855,-5.3863,-5.3871,-5.3982,-5.4002,-5.4018,0,0,0,0,0,-5.3595,-5.3683,-5.3654,-5.3663,-5.3699,-5.3747,-5.3751,-5.3713,-5.3661,-5.3701,-5.3686,-5.3635,-5.3732,-5.3681,-5.3691,-5.3753,-5.3851,-5.3861,-5.387,-5.3974,-5.3998,-5.4018,0,0,0,0,0,0,-5.3698,-5.3681,-5.3648,-5.3736,-5.3744,-5.373,-5.3779,-5.3738,-5.376,-5.3749,-5.37,-5.3699,-5.3777,-5.3771,-5.3716,-5.3857,-5.3782,-5.3794,-5.3857,-5.388,-5.3897,-5.3897,-5.3624,0,0,0,0,0,-5.3732,-5.3772,-5.3754,-5.3833,-5.3839,-5.3809,-5.3828,-5.3798,-5.3804,-5.3806,-5.3796,-5.3803,-5.3835,-5.3857,-5.3884,-5.3981,-5.3979,-5.4029,-5.4047,-5.4062,-5.4073,-5.4125,-5.4147,-5.3908,-5.3908,-5.3908,0,0,-5.38,-5.3795,-5.3824,-5.3854,-5.3857,-5.39,-5.3812,-5.3861,-5.3892,-5.3813,-5.3878,-5.3871,-5.3875,-5.3959,-5.3995,-5.3957,-5.4139,-5.4074,-5.4086,-5.409,-5.4138,-5.416,-5.418,-5.3915,-5.3914,-5.3913,0,0,-5.3947,-5.3948,-5.4014,-5.402,-5.4026,-5.4005,-5.4022,-5.4015,-5.4007,-5.4072,-5.4014,-5.405,-5.4106,-5.4112,-5.4123,-5.4275,-5.4229,-5.4285,-5.4379,-5.443,-5.4449,-5.4466,-5.4521,-5.4541,-5.4297,-5.4297,-5.4297,0,-5.4031,-5.4094,-5.4053,-5.4107,-5.4122,-5.4055,-5.4122,-5.4129,-5.4143,-5.4155,-5.4112,-5.4183,-5.418,-5.4265,-5.4303,-5.4313,-5.433,-5.4286,-5.445,-5.4466,-5.4481,-5.4533,-5.4554,-5.4304,-5.4303,-5.4302,-5.4302,0,-5.4198,-5.4243,-5.4296,-5.4314,-5.4335,-5.4395,-5.4363,-5.439,-5.4359,-5.4343,-5.441,-5.4406,-5.4433,-5.445,-5.4419,-5.4532,-5.4508,-5.4459,-5.4382,-5.4511,-5.456,-5.4579,-5.4314,-5.4311,-5.4309,-5.4307,0,0,-5.4409,-5.4406,-5.4426,-5.4434,-5.4437,-5.447,-5.4528,-5.4555,-5.4579,-5.4592,-5.4639,-5.4689,-5.4644,-5.4656,-5.4625,-5.467,-5.4793,-5.4615,-5.4614,-5.4649,-5.4917,-5.4955,-5.4979,-5.4762,-5.4766,-5.4769,-5.4917,0,-5.4553,-5.4653,-5.4619,-5.4719,-5.4761,-5.4698,-5.4748,-5.4755,-5.4743,-5.4775,-5.476,-5.4797,-5.4734,-5.4741,-5.4783,-5.4769,-5.4846,-5.4758,-5.4805,-5.4808,-5.4807,-5.5004,-5.5043,-5.5183,-5.4935,-5.4939,-5.4941,0,-5.4735,-5.4757,-5.4863,-5.486,-5.4876,-5.4922,-5.4946,-5.4978,-5.4985,-5.4972,-5.4987,-5.4947,-5.5003,-5.4928,-5.5004,-5.4945,-5.4962,-5.4959,-5.4963,-5.4966,-5.4882,-5.5013,-5.5227,-5.5249,-5.497,-5.4968,-5.4966,0,-5.488,-5.4936,-5.5007,-5.5016,-5.5014,-5.5048,-5.5049,-5.5052,-5.5071,-5.5091,-5.5104,-5.513,-5.5144,-5.5165,-5.5134,-5.5081,-5.5215,-5.5136,-5.5206,-5.5208,-5.5237,-5.5236,-5.5458,-5.5248,-5.5248,-5.5247,-5.5247,0,-5.5045,-5.5112,-5.5072,-5.5116,-5.519,-5.515,-5.5224,-5.5217,-5.5221,-5.5262,-5.5209,-5.5248,-5.5204,-5.5239,-5.5214,-5.5282,-5.5289,-5.528,-5.5273,-5.5285,-5.5287,-5.5296,-5.5286,-5.5253,-5.5252,-5.5251,-5.525,0,-5.5219,-5.5195,-5.5269,-5.5262,-5.5262,-5.5317,-5.5311,-5.5351,-5.5335,-5.5388,-5.5398,-5.5373,-5.5412,-5.5383,-5.542,-5.5404,-5.5494,-5.5472,-5.5492,-5.5486,-5.5559,-5.5553,-5.5795,-5.5825,-5.5596,-5.5598,-5.56,0,-5.5326,-5.5377,-5.5377,-5.5402,-5.5406,-5.5446,-5.5467,-5.5429,-5.5453,-5.5466,-5.5504,-5.5539,-5.5565,-5.563,-5.5615,-5.5644,-5.5623,-5.5706,-5.5627,-5.5638,-5.5625,-5.5623,-5.5628,-5.5722,-5.5725,-5.5727,-5.5729,0,-5.5519,-5.5506,-5.5538,-5.5567,-5.5594,-5.5614,-5.563,-5.5653,-5.5615,-5.5644,-5.5684,-5.5705,-5.5745,-5.578,-5.5804,-5.5804,-5.5761,-5.5754,-5.5772,-5.5785,-5.5795,-5.5792,-5.5537,-5.5749,-5.5747,-5.5745,-5.5744,-5.5743,-5.5663,-5.5706,-5.5714,-5.5752,-5.5761,-5.5778,-5.5816,-5.5806,-5.5839,-5.587,-5.5846,-5.5894,-5.5901,-5.5929,-5.5934,-5.5971,-5.5936,-5.5962,-5.5969,-5.5976,-5.5987,-5.579,-5.5975,-5.5974,-5.5974,-5.5973,-5.5973,0,-5.5855,-5.5857,-5.5893,-5.5918,-5.5949,-5.5907,-5.5923,-5.5951,-5.5995,-5.6005,-5.6033,-5.608,-5.6114,-5.6103,-5.6133,-5.6165,-5.6146,-5.6174,-5.6172,-5.6173,-5.6015,-5.5997,-5.6189,-5.6189,-5.6189,-5.6189,-5.6189,-5.6189,-5.5958,-5.6029,-5.6017,-5.6092,-5.6093,-5.6142,-5.6155,-5.617,-5.6178,-5.6234,-5.6263,-5.6256,-5.6257,-5.6288,-5.6318,-5.6313,-5.6327,-5.6363,-5.6352,-5.6205,-5.6184,-5.6163,-5.6146,-5.6367,-5.6367,-5.6506,-5.6508,-5.6509]},{"header":{"parameterUnit":"m.s-1","parameterCategory":1,"la1":30.2991,"la2":30.254,"lo1":-89.0895,"lo2":-89.0444,"dy":0.0017,"dx":0.0017,"nx":28,"ny":28,"refTime":"2023-09-02T03:00:00:Z","depth":0,"parameterNumber":3,"parameterNumberName":"V-component_of_WINDS"},"data":[0,0,0,0,0,0,0,0,0,0,0,0,0,0,0,0,0,0,0,0,0,0,0,0,0,0,0,0,0,0,0,0,0,0,0,0,0,0,0,0,0,0,0,0,0,0,0,0,0,0,0,0,0,0,0,0,0,0,-1.3804,-1.3807,0,-1.4127,-1.4131,-1.4135,-1.4246,-1.4244,-1.4243,-1.4242,-1.4572,-1.4582,-1.4592,0,0,0,0,0,0,0,0,0,0,0,0,0,-1.3277,-1.3286,-1.3803,-1.3807,-1.3811,-1.4127,-1.4131,-1.4136,-1.4246,-1.4244,-1.4243,-1.4241,-1.4569,-1.4581,-1.4593,0,0,0,0,0,0,0,0,0,0,0,0,0,-1.3543,-1.3289,-1.3803,-1.3904,-1.3917,-1.4126,-1.4131,-1.4137,-1.4246,-1.4244,-1.4242,-1.424,-1.4565,-1.458,-1.4594,-1.4726,0,0,-1.464,-1.4647,0,0,0,0,0,0,0,0,-1.3528,-1.3562,-1.3885,-1.3898,-1.3912,-1.4144,-1.4067,-1.4334,-1.4247,-1.4121,-1.4242,-1.4239,-1.4431,-1.4457,-1.4522,-1.4741,-1.4755,-1.4642,-1.4651,-1.4657,-1.4661,0,0,0,0,0,0,0,-1.3509,-1.3549,-1.3932,-1.389,-1.3906,-1.3933,-1.3968,-1.4118,-1.4283,-1.4132,-1.4141,-1.4177,-1.4438,-1.4507,-1.4531,-1.476,-1.4641,-1.4654,-1.4664,-1.467,-1.5101,-1.5103,0,0,0,0,0,0,-1.3474,-1.3533,-1.3921,-1.3941,-1.3711,-1.3944,-1.3984,-1.4071,-1.4282,-1.4312,-1.4179,-1.4181,-1.4483,-1.4513,-1.4543,-1.4711,-1.4657,-1.4671,-1.468,-1.5099,-1.5102,-1.5104,0,0,0,0,0,0,-1.3462,-1.3508,-1.3908,-1.374,-1.3793,-1.3955,-1.4052,-1.4079,-1.4149,-1.4317,-1.4347,-1.422,-1.4482,-1.4522,-1.4679,-1.4723,-1.4678,-1.4691,-1.5096,-1.51,-1.5103,-1.5046,0,0,0,0,0,0,-1.3447,-1.3503,-1.3556,-1.374,-1.3801,-1.404,-1.4055,-1.4087,-1.4174,-1.4181,-1.4363,-1.4392,-1.4484,-1.4656,-1.4694,-1.4743,-1.4703,-1.5093,-1.5097,-1.5102,-1.5045,-1.5048,-1.505,0,0,0,0,0,-1.3428,-1.3527,-1.3558,-1.3604,-1.3871,-1.4043,-1.4078,-1.4182,-1.4177,-1.4231,-1.4339,-1.4386,-1.4711,-1.4671,-1.4715,-1.4769,-1.509,-1.5096,-1.5101,-1.5044,-1.5047,-1.505,0,0,0,0,0,0,-1.3344,-1.3553,-1.359,-1.3752,-1.3878,-1.4061,-1.4133,-1.4182,-1.4313,-1.4314,-1.4437,-1.4477,-1.4625,-1.4712,-1.4664,-1.4906,-1.4903,-1.4918,-1.4845,-1.4849,-1.4851,-1.4828,-1.4716,0,0,0,0,0,-1.3344,-1.3467,-1.3643,-1.3769,-1.383,-1.397,-1.4049,-1.4118,-1.4254,-1.4308,-1.4428,-1.4557,-1.4689,-1.4773,-1.4904,-1.5056,-1.5098,-1.5115,-1.5117,-1.5118,-1.5131,-1.5217,-1.5227,-1.5123,-1.5123,-1.5122,0,0,-1.3347,-1.3476,-1.3547,-1.3755,-1.3862,-1.3985,-1.4015,-1.4145,-1.4238,-1.4328,-1.4485,-1.4576,-1.4728,-1.4884,-1.4958,-1.4962,-1.5167,-1.5125,-1.5125,-1.5137,-1.5223,-1.5233,-1.5242,-1.5126,-1.5126,-1.5125,0,0,-1.3415,-1.3525,-1.3642,-1.3747,-1.3907,-1.3999,-1.4026,-1.4201,-1.4265,-1.4424,-1.4494,-1.4604,-1.4828,-1.4934,-1.5017,-1.5119,-1.5168,-1.5158,-1.5172,-1.5255,-1.5263,-1.5271,-1.5308,-1.532,-1.5169,-1.5169,-1.5169,0,-1.3399,-1.3589,-1.3696,-1.3822,-1.3911,-1.3997,-1.4116,-1.4212,-1.4406,-1.4465,-1.4465,-1.4747,-1.4856,-1.5037,-1.5061,-1.5125,-1.516,-1.514,-1.5253,-1.5262,-1.5271,-1.5308,-1.5322,-1.5167,-1.5167,-1.5167,-1.5167,0,-1.356,-1.369,-1.3765,-1.395,-1.4047,-1.4169,-1.4293,-1.4378,-1.4436,-1.4527,-1.4686,-1.4818,-1.4976,-1.5023,-1.5083,-1.5212,-1.5209,-1.5229,-1.5229,-1.5277,-1.5314,-1.5329,-1.5164,-1.5164,-1.5165,-1.5165,0,0,-1.3591,-1.383,-1.3856,-1.394,-1.4121,-1.4224,-1.4346,-1.4501,-1.4572,-1.47,-1.4808,-1.4993,-1.5012,-1.5105,-1.5176,-1.5248,-1.5321,-1.526,-1.5265,-1.5268,-1.5471,-1.5457,-1.5472,-1.5352,-1.5355,-1.5357,-1.5459,0,-1.3684,-1.3911,-1.4009,-1.419,-1.4311,-1.4392,-1.4499,-1.462,-1.4707,-1.4821,-1.4916,-1.5046,-1.5061,-1.5117,-1.5192,-1.5296,-1.5364,-1.529,-1.5453,-1.5457,-1.5415,-1.5491,-1.5477,-1.5567,-1.5474,-1.5476,-1.5478,0,-1.3826,-1.3955,-1.4148,-1.4312,-1.4367,-1.4462,-1.461,-1.4718,-1.4855,-1.4913,-1.5015,-1.5082,-1.5213,-1.52,-1.5382,-1.5329,-1.54,-1.5461,-1.5467,-1.5489,-1.5473,-1.5517,-1.5599,-1.5613,-1.5502,-1.55,-1.5498,0,-1.383,-1.4052,-1.4197,-1.4266,-1.446,-1.4525,-1.4608,-1.4744,-1.483,-1.4958,-1.5014,-1.5155,-1.5233,-1.534,-1.5442,-1.5423,-1.5613,-1.561,-1.5665,-1.5662,-1.5705,-1.5702,-1.5801,-1.5746,-1.5745,-1.5745,-1.5745,0,-1.3926,-1.4042,-1.4201,-1.429,-1.4421,-1.453,-1.4656,-1.4745,-1.4864,-1.4971,-1.5047,-1.5145,-1.5272,-1.5386,-1.5465,-1.5603,-1.5637,-1.5687,-1.5708,-1.5682,-1.5676,-1.5734,-1.5731,-1.5749,-1.5748,-1.5747,-1.5747,0,-1.3956,-1.4067,-1.423,-1.4399,-1.4444,-1.4533,-1.4677,-1.4766,-1.4853,-1.4987,-1.5024,-1.5162,-1.5299,-1.541,-1.559,-1.5643,-1.5788,-1.581,-1.5742,-1.5753,-1.5803,-1.5797,-1.5945,-1.597,-1.5895,-1.5895,-1.5896,0,-1.4012,-1.4103,-1.428,-1.4357,-1.444,-1.4563,-1.465,-1.4758,-1.4846,-1.5007,-1.5076,-1.5218,-1.5339,-1.5553,-1.5669,-1.5805,-1.5833,-1.5875,-1.5854,-1.5825,-1.5835,-1.583,-1.5839,-1.5878,-1.5878,-1.5878,-1.5879,0,-1.41,-1.4149,-1.4273,-1.4414,-1.4515,-1.4632,-1.475,-1.4808,-1.4938,-1.5031,-1.5172,-1.5265,-1.5447,-1.5587,-1.5735,-1.582,-1.5871,-1.5883,-1.5904,-1.5881,-1.5838,-1.5863,-1.575,-1.5881,-1.5881,-1.588,-1.588,-1.588,-1.4147,-1.423,-1.4368,-1.4502,-1.4601,-1.4709,-1.48,-1.4898,-1.5017,-1.5175,-1.523,-1.5374,-1.5506,-1.5711,-1.5795,-1.5909,-1.5914,-1.5943,-1.5951,-1.5957,-1.5954,-1.5817,-1.5936,-1.5936,-1.5936,-1.5936,-1.5936,0,-1.424,-1.4331,-1.4453,-1.4615,-1.4719,-1.4756,-1.4887,-1.4972,-1.5099,-1.5217,-1.5333,-1.5493,-1.5628,-1.5752,-1.5893,-1.596,-1.5986,-1.5993,-1.5991,-1.6009,-1.5942,-1.5911,-1.5969,-1.5969,-1.5969,-1.5969,-1.5969,-1.5969,-1.4301,-1.4445,-1.4509,-1.4702,-1.4792,-1.4935,-1.5007,-1.5105,-1.5201,-1.5377,-1.5489,-1.5568,-1.5689,-1.5838,-1.5962,-1.5995,-1.6044,-1.6045,-1.6084,-1.6019,-1.6014,-1.601,-1.5982,-1.6054,-1.6054,-1.6143,-1.6144,-1.6144]}]]